User: anonymous   Login
Location: Vancouver
(49.2500°N, 123.1330°W)
Time: 16:51:51
(UTC-07:00)
Language:

Cosmos 1939 Rocket - Orbit

View from above orbital plane
View from above orbital plane
View from above satellite
View from above satellite

Ground track
Ground track

The orbit data is extracted from the following two-line orbital elements,

1 19046U 88032B   16119.70837847 -.00000010  00000-0  39686-5 0  9992
2 19046  97.5809 171.1099 0036880 307.0352  52.7501 15.01839695510422
Epoch (UTC): 28 April 2016 17:00:03
Eccentricity: 0.0036880
inclination: 97.5809°
perigee height: 535 km
apogee height: 587 km
right ascension of ascending node: 171.1099°
argument of perigee: 307.0352°
revolutions per day: 15.01839695
mean anomaly at epoch: 52.7501°
orbit number at epoch: 51042

The dashed part of the orbit path shows where the satellite is in the earth's shadow,  

DLR